COSMOS 1275 DEB, 12773

Orbit data source: Space-Track

COSMOS 1275 DEB, 12773 is space debris in LEO originally from a launch on Thu, 04 Jun 1981 UTC launched from the Plesetsk Missile And Space Complex (PKMTR). Debris objects in space refer to the collection of defunct objects orbiting the Earth. Examples of debris include non-operational satellites, rocket bodies, and fragments generated from explosions, collisions, or faulty payload assembly.

Loading next visibility...
Identifier
12773, 1981-053DS
Orbit
LEO
Country
Flag of CISCIS
Related business
Manufacturer
Unknown
Mission
Spacecraft
Bus & Motor
Unknown
Mass
Unknown
Launch date (UTC)
1981-06-04 (45 years ago)
Launch vehicle
Unknown
Launch site
Plesetsk Missile And Space Complex (PKMTR)
Object type
Payload
Rocket body
Debris
Shape & HBR
Unknown shape, 0.1 m
Radar Cross Section
Medium (>0.1 m² and <1 m²)

Expand to show TLE details & history
Last TLE update: 2 days ago

TLE from 2 days ago
0 COSMOS 1275 DEB
1 12773U 81053DS  26171.38708723  .00026203  00000-0  38000-2 0  9998
2 12773  82.9177 303.7652 0079604 204.1737 155.5732 14.73736968277448
Epoch: 2026-06-20T09:17Z
TLE epoch observation values (Epoch: 2026-06-20T09:17:24.336Z)
Latitude
Longitude
-104.18864°
Altitude
703.219 km
Speed
7.477 km/s
True Right ascension
20h 15m 03s
True Declination
0° 00' 00"
Sunlit
Object was in full shadow at epoch
Visualization orbit readout
Latitude
Unknown
Longitude
Unknown
Altitude
Unknown
Speed
Unknown
Apparent Right ascension
Unknown
Apparent Declination
Unknown
Sunlit
N/A
Visualization observer readout
Local Sidereal Time
06:13:18
Azimuth
Unknown
Elevation
Unknown
Doppler factor
Unknown
Orbital elements
Apogee altitude
702.094 km
Perigee altitude
590.261 km
Semi-major axis
7,024.315 km
Eccentricity
0.00796
Inclination
82.9177°
RAAN
303.7652°
Arg. of periapsis
204.1737°
True anomaly
155.94703°
Mean anomaly
155.5732°
Eccentric anomaly
155.76045°
Mean motion
3.6867 °/min
Orbital period
97.65 mins
BSTAR
0.0038
Loading maneuver chart data...
Computing Atmospheric mass density...
Loading historical data...
Loading historical data...
Loading historical data...
Loading historical data...
Loading historical data...
Loading historical data...
Loading historical data...

Documentation

Showing up to 5 results
|